Location: Squamish
(49.7000°N, 123.1500°W)
Time: 17:35:56
(UTC-08:00)

Daily predictions for brighter satellites

Satellite Brightness Start Highest point End
(mag) Time Altitude Azimuth Time Altitude Azimuth Time Altitude Azimuth
SL-16 R/B 4.1 16:49:11 10° N 16:54:38 32° WNW 17:00:03 10° WSW
Cosmos 1484 Rocket 3.4 16:51:15 10° SE 16:54:49 35° ENE 16:58:27 10° N
Cosmos 1802 Rocket 4.0 16:49:25 10° S 16:55:34 81° E 17:01:44 10° N
COSMOS 2441 4.4 16:51:22 10° SSE 16:56:13 74° ENE 17:01:09 10° N
CZ-4C R/B 3.4 16:54:16 10° NW 17:00:20 36° NNE 17:07:11 10° E
Cosmos 1862 3.9 16:58:56 10° NNW 17:02:56 65° W 17:06:55 10° S
Cosmos 1816 Rocket 4.5 16:57:49 10° N 17:03:55 62° ENE 17:10:00 10° SSE
IRAS Rocket 4.2 16:59:52 10° SSE 17:05:24 81° ENE 17:10:57 10° NNW
Cosmos 1763 Rocket 3.5 17:01:18 10° NNW 17:06:32 66° ENE 17:11:40 10° SSE
Meteor 2-10 Rocket 3.6 17:04:46 10° S 17:10:02 88° ESE 17:15:36 10° NNE
Cosmos 1340 2.6 17:07:36 10° S 17:11:21 68° E 17:15:08 10° NNE
Cosmos 2082 Rocket 2.7 17:06:12 10° NNW 17:11:33 39° NE 17:16:50 10° ESE
CZ-2C R/B 3.1 17:07:11 10° S 17:12:10 63° W 17:17:19 10° NNW
SJ-12 4.1 17:08:28 10° SSE 17:12:36 83° WSW 17:16:48 10° NNW
COSMO-SKYMED 1 4.2 17:10:05 10° NE 17:12:40 15° E 17:15:16 10° SE
CSL-04 Rocket 3.6 17:09:35 10° SSE 17:14:53 78° ENE 17:20:16 10° NNW
Cosmos 1725 Rocket 4.0 17:09:35 10° S 17:15:49 72° E 17:22:03 10° NNE
Meteor 1-20 Rocket 4.4 17:10:48 10° N 17:16:11 45° ENE 17:21:26 10° SE
Meteor 1-25 Rocket 4.5 17:11:03 10° N 17:16:47 51° ENE 17:22:25 10° SSE
Cosmos 1782 4.3 17:14:28 10° SE 17:17:12 18° E 17:19:56 10° NE
SL-27 R/B 2.8 17:14:06 10° N 17:17:14 36° ENE 17:20:22 10° SE
YAOGAN 1 3.1 17:13:47 10° SE 17:17:44 36° ENE 17:21:44 10° N
Cosmos 1814 Rocket 4.1 17:16:12 10° NNW 17:21:35 88° WSW 17:26:57 10° SSE
ERS-2 2.9 17:20:11 10° SE 17:23:26 30° ENE 17:26:42 10° N
ATLAS 3B R/B 3.9 17:20:29 10° W 17:26:55 34° NNW 17:33:07 10° NE
Cosmos 44 Rocket 3.7 17:24:05 10° NNW 17:28:40 40° NE 17:33:19 10° ESE
USA 161 2.6 17:27:23 10° N 17:29:05 28° WNW 17:30:53 10° SW
Meteor 2-12 Rocket 4.4 17:23:55 10° S 17:29:59 78° E 17:36:04 10° NNE
Tsikada Rocket 4.2 17:24:20 10° NNW 17:30:32 79° W 17:36:41 10° S
Cosmos 540 Rocket 3.7 17:27:44 10° NNW 17:32:45 47° ENE 17:37:43 10° SE
BREEZE-M R/B 3.5 17:30:58 10° W 17:33:19 36° SSW 17:36:36 10° SE
Cosmos 2346 Rocket 4.4 17:27:35 10° N 17:33:46 83° E 17:39:58 10° S
Lacrosse 5 2.5 17:30:05 10° W 17:34:58 46° NNW 17:38:55 15° NE
CZ-2C R/B 4.1 17:31:24 10° NNE 17:35:39 42° E 17:39:57 10° S
Cosmos 304 Rocket 4.0 17:31:05 10° NNW 17:35:55 75° WSW 17:40:41 10° SSE
DNEPR-1 R/B 4.4 17:34:35 10° WSW 17:38:41 43° NW 17:42:36 11° NNE
Cosmos 1703 Rocket 4.1 17:34:44 10° SSE 17:38:49 36° E 17:42:54 10° NNE
Cosmos 292 Rocket 4.4 17:34:37 10° N 17:38:58 34° NE 17:43:18 10° ESE
SL-23 DEB 4.1 17:35:26 10° WNW 17:39:00 72° N 17:43:15 16° E
Ariane Rocket 3.2 17:35:00 10° S 17:40:05 75° WSW 17:45:12 10° NNW
Cosmos 841 Rocket 3.6 17:36:53 10° NNW 17:42:12 86° WSW 17:47:29 10° SSE
Cosmos 1844 Rocket 3.1 17:37:11 10° SW 17:42:47 64° WNW 17:48:23 10° NNE
Cosmos 1633 2.8 17:40:48 10° N 17:44:22 46° ENE 17:47:55 10° SSE
USA 234 4.4 17:42:57 16° E 17:46:30 25° SE 17:51:39 10° S
Cosmos 1437 3.0 17:43:56 10° SSW 17:47:05 68° WNW 17:50:16 10° N
Okean 2 Rocket 3.7 17:44:14 10° N 17:48:25 35° ENE 17:52:35 10° SE
Cosmos 44 3.2 17:52:12 10° NW 17:56:48 64° NE 18:01:26 11° SE
Cosmos 1486 Rocket 4.0 17:51:47 10° S 17:56:56 63° ESE 18:01:36 13° NNE
Cosmos 1908 Rocket 3.7 17:55:14 10° NNW 17:59:35 77° W 18:03:54 10° S
FENGYUN 3A 3.8 17:55:32 10° SE 18:00:45 51° ENE 18:05:59 10° N
SKYMED 2 3.9 17:58:00 16° NNE 18:01:08 42° E 18:05:16 10° S
Cosmos 1833 Rocket 2.6 18:01:49 10° NNW 18:07:30 87° ENE 18:13:08 10° SSE
Cosmos 1464 Rocket 4.0 18:04:33 10° SSE 18:10:27 53° E 18:16:26 10° NNE
ALOS 2.2 18:09:08 10° SSE 18:13:44 62° ENE 18:18:22 10° N
Cosmos 1354 Rocket 4.2 18:09:19 10° S 18:14:21 48° ESE 18:16:48 28° NE
Cosmos 2297 4.0 18:10:23 10° S 18:15:47 45° ESE 18:18:12 29° ENE
Meteor 1-28 Rocket 3.5 18:12:38 10° N 18:16:20 65° WNW 18:20:00 10° SSW
Sich 1 Rocket 4.1 18:12:39 10° NNW 18:17:01 62° W 18:21:25 10° S
SPOT 3 Rocket 3.4 18:12:13 10° SSE 18:17:26 79° ENE 18:22:40 10° NNW
Meteor 1-11 Rocket 3.8 18:14:20 10° N 18:20:09 56° ENE 18:25:48 10° SSE
Cosmos 2278 Rocket 2.2 18:14:31 10° SSW 18:20:12 82° WNW 18:24:44 17° NNE
Cosmos 2263 Rocket 4.5 18:17:31 10° WNW 18:20:44 15° NNW 18:23:57 10° N
CZ-4 R/B 2.9 18:18:50 10° SSW 18:22:24 35° W 18:25:58 10° NNW
Cosmos 1606 2.6 18:23:02 10° S 18:26:49 84° W 18:28:56 25° N
Landsat 4 3.9 18:25:15 18° N 18:27:59 70° WNW 18:31:46 10° SSW
Intercosmos 25 4.3 18:21:48 10° S 18:29:24 89° WNW 18:34:00 10° N
CENTAUR R/B 3.3 18:24:35 10° WSW 18:30:47 51° NW 18:35:46 20° NE
EO 1 Del DPAF 3.1 18:29:55 47° NNE 18:30:59 81° ESE 18:34:47 10° SSW
Okean 1-7 2.9 18:26:43 10° S 18:31:06 84° E 18:34:07 20° NNE
COSMOS 2455 3.4 18:26:15 10° SW 18:32:09 55° NW 18:36:29 19° NNE
Meteor 2-20 Rocket 4.4 18:28:03 10° N 18:34:05 58° ENE 18:40:04 10° SSE
BREEZE-M DEB (TANK) 2.9 18:33:39 10° WSW 18:36:00 80° SSW 18:36:00 80° SSW
NOAA 12 4.1 18:33:24 10° SSE 18:38:44 82° WSW 18:44:05 10° NNW
Cosmos 405 3.5 18:37:27 10° NNW 18:40:14 51° NNW 18:40:14 51° NNW
Cosmos 1602 3.9 18:44:08 10° NNW 18:47:58 68° W 18:51:47 10° S
COSMO-SKYMED 1 2.9 18:46:37 23° N 18:49:18 66° WNW 18:53:35 10° SSW
CZ-4C R/B 2.8 18:42:45 10° NW 18:49:45 89° NE 18:54:35 26° SE
Cosmos 1513 Rocket 4.4 18:46:39 10° S 18:52:57 88° W 18:59:12 10° N
Cosmos 1782 3.8 18:49:20 10° SSW 18:53:12 45° WNW 18:55:40 20° N
Cosmos 2082 Rocket 3.3 18:50:21 10° NW 18:55:44 44° WSW 19:01:04 10° S
ERS-2 4.5 18:54:04 10° SSW 18:57:07 24° W 19:00:12 10° NW
Meteor 2-6 Rocket 4.3 18:53:09 10° SSW 18:58:37 74° WNW 19:04:16 10° N
Cosmos 405 Rocket 4.1 18:56:18 10° SSW 18:58:17 30° SSW 18:58:17 30° SSW
Cosmos 44 Rocket 4.4 19:05:41 10° NW 19:10:14 41° WSW 19:12:42 24° S
BREEZE-M DEB (TANK) 3.6 19:10:51 10° W 19:12:24 37° WSW 19:12:24 37° WSW
FengYun 1-2 T 4.4 19:12:18 13° S 19:17:15 73° WSW 19:22:52 10° NNW
Nadezhda 4 Rocket 4.1 19:12:18 10° NNW 19:18:24 69° W 19:24:27 10° S
Lacrosse 5 3.0 19:14:07 10° WNW 19:18:06 35° NNW 19:18:06 35° NNW
ATLAS 3B R/B 4.0 19:14:03 10° NW 19:19:40 25° N 19:20:38 24° NNE
Timation 2 Rocket 4.4 19:20:24 10° NW 19:27:08 64° WSW 19:30:09 33° S
Cosmos 2034 Rocket 4.4 19:21:25 10° SSW 19:27:43 62° WNW 19:34:00 10° N
Meteor 1-27 Rocket 4.1 19:22:55 10° SSW 19:28:49 68° WNW 19:31:41 32° N
Meteor 1-5 Rocket 4.3 19:23:43 10° NNW 19:28:52 67° W 19:28:52 67° W
USA 234 3.1 19:30:18 74° SSE 19:30:18 74° SSE 19:36:47 10° SW
Cosmos 1092 Rocket 4.0 19:29:27 10° NNW 19:35:36 73° W 19:36:56 55° SSW
Cosmos 2278 Rocket 4.2 20:00:59 10° W 20:05:13 21° NW 20:06:36 19° NNW
CENTAUR R/B 4.2 20:17:19 10° WNW 20:22:57 29° NNW 20:22:57 29° NNW
CZ-4C R/B 4.5 20:31:59 10° WNW 20:37:51 27° WSW 20:39:51 24° SW
